TimeEST,TemperatureF,Dew PointF,Humidity,Sea Level PressureIn,VisibilityMPH,Wind Direction,Wind SpeedMPH,Gust SpeedMPH,PrecipitationIn,Events,Conditions,WindDirDegrees,DateUTC
12:53 AM,59.0,53.1,81,29.97,10.0,SSW,12.7,-,N/A,,Mostly Cloudy,200,2012-12-04 05:53:00
1:53 AM,60.1,52.0,75,29.96,10.0,SSW,12.7,-,N/A,,Scattered Clouds,200,2012-12-04 06:53:00
2:53 AM,61.0,52.0,72,29.97,10.0,SSW,15.0,23.0,N/A,,Mostly Cloudy,200,2012-12-04 07:53:00
3:53 AM,61.0,52.0,72,29.96,10.0,SSW,12.7,21.9,N/A,,Overcast,200,2012-12-04 08:53:00
4:53 AM,60.1,51.1,72,29.95,10.0,SSW,11.5,21.9,N/A,,Overcast,210,2012-12-04 09:53:00
6:53 AM,60.1,52.0,75,29.96,10.0,SSW,10.4,-,N/A,,Overcast,200,2012-12-04 11:53:00
7:17 AM,60.8,51.8,72,29.97,10.0,SSW,10.4,-,N/A,,Overcast,210,2012-12-04 12:17:00
7:53 AM,60.1,52.0,75,29.98,10.0,SSW,12.7,-,N/A,,Overcast,210,2012-12-04 12:53:00
8:53 AM,59.0,55.0,87,29.99,10.0,SW,10.4,19.6,0.00,,Overcast,220,2012-12-04 13:53:00
9:18 AM,53.6,48.2,82,30.01,10.0,NW,11.5,-,0.00,,Overcast,320,2012-12-04 14:18:00
9:53 AM,52.0,46.9,83,30.03,10.0,NNW,6.9,-,0.00,Rain,Light Rain,340,2012-12-04 14:53:00
10:18 AM,51.8,46.4,82,30.03,5.0,NW,6.9,-,0.01,Rain,Light Rain,320,2012-12-04 15:18:00
10:53 AM,48.9,46.9,93,30.07,5.0,Variable,5.8,-,0.05,Rain,Light Rain,0,2012-12-04 15:53:00
10:58 AM,48.2,46.4,93,30.05,6.0,NW,11.5,-,0.00,Rain,Light Rain,320,2012-12-04 15:58:00
11:53 AM,48.0,45.0,89,30.04,10.0,NW,8.1,-,0.03,Rain,Light Rain,310,2012-12-04 16:53:00
12:53 PM,48.9,44.1,83,30.04,10.0,Calm,Calm,-,0.01,Rain,Light Rain,0,2012-12-04 17:53:00
1:53 PM,48.9,43.0,80,30.04,10.0,WSW,4.6,-,0.01,Rain,Light Rain,250,2012-12-04 18:53:00
2:53 PM,48.9,43.0,80,30.05,10.0,Calm,Calm,-,0.01,,Overcast,0,2012-12-04 19:53:00
3:53 PM,48.9,43.0,80,30.06,10.0,West,5.8,-,N/A,,Overcast,260,2012-12-04 20:53:00
4:53 PM,48.9,44.1,83,30.09,10.0,WSW,4.6,-,N/A,,Overcast,250,2012-12-04 21:53:00
5:53 PM,46.9,43.0,86,30.09,10.0,WSW,3.5,-,N/A,,Clear,240,2012-12-04 22:53:00
6:53 PM,45.0,41.0,86,30.11,10.0,WSW,3.5,-,N/A,,Clear,240,2012-12-04 23:53:00
7:53 PM,42.1,37.9,85,30.13,10.0,Calm,Calm,-,N/A,,Clear,0,2012-12-05 00:53:00
8:53 PM,41.0,36.0,82,30.13,10.0,Calm,Calm,-,N/A,,Clear,0,2012-12-05 01:53:00
9:53 PM,41.0,34.0,76,30.14,10.0,WSW,3.5,-,N/A,,Clear,240,2012-12-05 02:53:00
10:53 PM,41.0,34.0,76,30.16,10.0,WSW,3.5,-,N/A,,Clear,250,2012-12-05 03:53:00
11:53 PM,41.0,34.0,76,30.18,10.0,WSW,4.6,-,N/A,,Clear,250,2012-12-05 04:53:00